Location: ????????
(60.4333°N, 46.4710°E)
Time: 19:17:43
(UTC+00:00)

Cosmos 2360 Rocket - Pass Details

Date: 25 November 2020
Orbit: 834 x 845 km, 71.0° (Epoch: 16 January)

Event Time Altitude Azimuth Distance (km) Brightness Sun altitude
Rises 17:18:14 0° 293° (WNW) 3,391 6.3 -37.0°
Reaches altitude 10° 17:21:02 10° 305° (NW) 2,457 5.3 -37.3°
Enters shadow 17:24:05 24° 334° (NNW) 1,674 4.1 -37.7°
